Dewpoint
66 70 73 71 70 71 71 71 71 71 71 71 70 70 69 69 70 70 70 70 70 70 69 69 67 68 68 69 69 69 69 68 69 70 70 70 68 69 68 69 70 68 70
67 69 72 72 70 70 71 71 72 72 72 71 71 71 70 69 69 71 70 70 70 69 69 68 68 69 68 69 68 68 68 68 68 69 69 69 69 69 68 69 69 68 69
67 68 70 71 71 71 71 71 71 71 71 71 71 71 70 69 69 70 70 69 69 70 68 68 69 68 68 68 68 67 68 68 68 67 67 65 66 69 69 69 70 69 69
67 68 69 72 72 72 71 71 70 70 71 71 71 71 71 69 68 69 70 69 69 69 70 69 69 69 68 67 67 66 67 67 66 66 62 63 64 67 67 68 69 68 68
67 68 69 72 72 71 71 70 70 69 70 71 71 70 69 69 68 68 68 70 71 70 70 69 69 68 68 67 66 66 65 65 66 64 61 62 63 66 68 68 68 68 68
64 68 70 71 71 71 71 70 70 69 70 70 70 70 69 69 69 69 69 70 70 70 69 69 68 68 68 67 67 66 65 65 64 61 61 65 64 66 66 67 67 68 68
53 60 64 69 70 70 70 70 70 70 69 70 70 69 69 69 68 69 70 70 69 70 69 68 69 68 68 67 67 66 66 66 63 60 61 63 65 67 66 67 67 66 66
41 48 53 58 60 62 69 69 69 69 69 69 70 71 70 69 68 68 70 70 70 69 69 68 68 68 68 67 67 66 67 65 62 61 62 65 67 66 67 67 67 67 67
41 42 43 46 50 56 61 68 69 69 68 69 69 71 70 69 69 69 70 70 70 69 70 69 68 67 67 67 67 68 66 65 61 61 61 64 67 65 66 66 67 67 67
40 43 43 44 46 45 46 58 68 68 68 69 68 68 68 68 69 69 69 69 70 70 69 69 68 67 66 66 67 67 65 64 60 61 60 61 67 65 65 65 65 66 66
42 42 42 44 44 45 46 48 57 64 66 68 67 66 66 67 66 66 67 67 69 70 69 69 69 68 66 65 65 64 64 61 59 61 60 64 66 65 64 64 64 64 65
38 42 43 43 45 44 45 46 47 48 49 63 65 65 65 66 66 66 65 66 68 68 68 69 69 68 65 61 60 62 60 59 59 60 60 65 65 66 64 63 62 62 61
41 43 45 44 45 45 45 46 46 45 45 49 64 64 64 65 64 64 64 65 65 65 66 67 67 65 61 58 58 59 59 58 59 59 61 66 66 66 64 63 62 61 61
41 43 45 44 44 45 46 46 46 45 46 45 46 58 63 62 62 63 63 63 63 64 65 66 65 62 59 57 56 57 57 58 59 62 63 64 66 66 64 63 61 60 59
41 43 44 44 44 44 44 46 46 46 47 47 47 48 59 61 60 60 61 62 62 64 64 64 63 61 59 57 54 56 55 56 58 63 63 63 65 66 64 62 61 60 59
40 40 42 44 44 44 44 45 46 47 48 48 48 48 48 58 60 60 60 63 64 65 64 62 61 61 60 56 53 54 54 56 61 63 63 63 64 64 64 62 61 60 59
38 40 41 44 44 43 43 45 46 47 47 47 48 49 48 56 59 58 58 57 58 60 62 61 61 60 59 61 60 60 61 62 62 63 62 62 63 63 63 62 61 60 59
38 37 38 40 41 40 41 43 44 45 46 47 48 49 50 50 58 57 56 56 57 58 59 60 59 59 58 58 58 58 58 61 61 61 61 60 61 62 63 63 62 60 59
36 37 37 38 38 39 40 42 43 44 45 47 48 49 49 51 57 57 56 56 57 57 57 58 56 58 57 58 56 55 55 57 59 60 60 59 59 60 61 62 61 60 59
35 36 37 38 37 39 41 42 44 44 44 45 48 49 51 52 55 56 55 55 56 56 56 55 55 55 58 57 55 53 53 54 56 58 58 58 58 57 57 59 57 57 59
36 36 38 37 36 39 41 42 43 43 44 45 46 47 48 50 53 56 55 55 55 55 54 54 54 56 54 54 52 51 51 52 53 54 56 57 57 56 56 55 55 56 57
36 35 38 37 38 39 42 43 44 45 45 46 47 47 47 48 50 54 56 57 56 55 55 55 56 55 53 54 51 49 47 49 50 51 52 53 53 54 54 54 53 52 52
31 34 37 38 39 40 41 44 46 47 47 46 46 47 48 48 50 52 55 57 56 56 56 55 54 54 52 53 52 50 46 46 47 49 48 48 52 52 53 52 51 49 48
32 35 40 42 43 43 43 44 44 45 45 46 47 47 48 48 48 50 53 55 56 57 55 55 55 54 53 53 51 52 50 48 46 44 47 47 49 49 49 48 45 45 43
35 41 42 42 43 43 44 44 44 45 46 48 48 48 47 47 47 48 50 52 53 55 56 55 55 55 54 52 51 51 47 48 46 44 42 44 46 48 47 44 43 42 41
39 41 41 41 42 43 44 44 45 45 47 48 48 48 47 47 47 47 48 50 52 53 53 54 55 54 54 53 53 50 49 47 45 44 42 42 44 41 44 43 43 43 44
Lifted_Index
-4 -4 -5 -4 -3 -4 -4 -4 -4 -4 -3 -3 -3 -3 -2 -2 -2 -3 -3 -3 -3 -2 -2 -1 -1 -1 -1 -1 -0 0 0 1 1 0 0 0 1 1 1 1 0 0 0
-4 -4 -5 -4 -3 -3 -4 -4 -4 -4 -4 -4 -3 -3 -3 -2 -2 -3 -3 -3 -3 -2 -2 -1 -1 -1 -1 -0 -0 0 1 1 1 1 1 1 1 1 1 1 1 1 0
-4 -4 -5 -4 -4 -4 -4 -4 -4 -4 -4 -4 -4 -4 -3 -2 -2 -3 -3 -3 -2 -2 -2 -1 -1 -1 -0 -0 0 1 1 1 1 2 2 2 1 1 1 1 1 1 1
-4 -4 -5 -5 -4 -4 -4 -3 -3 -3 -3 -4 -4 -4 -3 -3 -2 -2 -3 -3 -2 -2 -2 -2 -1 -1 -0 0 1 1 1 1 2 3 3 3 2 1 1 1 1 1 1
-4 -4 -5 -5 -5 -4 -4 -3 -3 -3 -3 -3 -4 -3 -3 -3 -2 -2 -3 -3 -2 -2 -2 -2 -1 -1 -0 0 1 1 1 2 2 3 3 3 2 1 1 1 1 1 1
-4 -4 -4 -5 -5 -4 -4 -3 -3 -3 -3 -3 -3 -3 -3 -3 -3 -3 -3 -2 -2 -2 -2 -1 -1 -1 -0 0 0 1 1 2 2 3 3 2 2 1 1 1 1 1 1
-2 -2 -3 -4 -4 -4 -4 -3 -3 -3 -3 -3 -3 -3 -3 -3 -3 -3 -3 -3 -2 -2 -2 -1 -1 -1 -1 -0 0 1 1 2 2 3 3 2 1 1 1 1 1 1 1
3 3 1 0 -1 -1 -2 -3 -3 -3 -3 -3 -3 -3 -3 -3 -3 -3 -3 -3 -2 -2 -2 -1 -1 -1 -0 -0 0 1 1 2 2 2 2 2 1 1 1 1 1 1 1
7 7 6 6 5 4 2 -1 -3 -3 -3 -3 -3 -3 -3 -3 -3 -3 -3 -3 -3 -2 -2 -1 -1 -0 -0 0 0 1 2 2 2 2 2 2 1 1 1 1 1 1 1
8 8 9 9 8 8 6 3 -0 -2 -2 -2 -2 -3 -3 -2 -2 -2 -2 -2 -3 -3 -2 -2 -1 -0 0 1 1 1 2 3 2 2 3 2 1 1 1 2 2 2 1
8 8 8 9 9 9 8 7 4 2 0 -1 -2 -2 -2 -2 -2 -2 -2 -2 -2 -3 -2 -2 -2 -1 0 1 2 3 3 3 3 3 3 3 2 1 2 2 3 3 3
8 8 8 8 8 8 8 8 7 5 3 0 -2 -2 -2 -2 -2 -2 -2 -2 -2 -2 -2 -2 -2 -1 0 2 3 4 5 5 4 3 3 2 2 1 2 3 3 4 4
8 8 8 8 8 8 8 8 8 7 5 3 -0 -2 -2 -2 -2 -2 -2 -2 -2 -2 -2 -2 -2 -1 0 2 4 5 6 6 5 3 3 2 1 1 2 3 4 5 5
8 8 8 8 8 8 8 8 8 8 7 5 3 1 -1 -1 -1 -1 -1 -2 -2 -2 -2 -2 -2 -1 -0 2 5 6 7 6 5 3 2 2 1 1 2 3 4 5 6
8 8 9 8 8 8 8 8 8 8 8 7 6 5 3 1 -0 -0 -1 -1 -1 -1 -2 -2 -2 -1 -1 1 5 6 7 6 4 3 2 2 2 2 2 3 5 5 6
9 9 9 9 9 9 9 9 9 9 9 8 8 7 6 3 1 0 1 0 -0 -1 -1 -1 -1 -1 -1 1 4 5 5 5 3 2 2 2 2 2 3 3 5 5 6
9 9 9 9 9 9 9 9 10 10 9 9 9 8 7 5 2 1 2 2 1 1 0 -0 -0 -0 0 2 3 4 4 3 2 2 2 2 2 2 3 4 4 5 6
8 8 9 9 9 10 10 10 10 10 10 10 9 8 8 6 4 3 3 3 3 2 2 2 1 1 2 2 3 3 3 2 2 1 1 2 2 3 3 4 4 5 6
8 8 9 9 9 9 10 10 10 10 10 10 9 8 8 7 5 3 3 3 4 4 4 3 2 2 2 3 3 3 2 2 2 1 1 2 2 3 3 4 5 5 6
8 8 8 8 9 9 9 10 10 10 9 9 9 8 8 7 5 4 3 3 4 4 4 3 3 2 2 2 2 2 2 2 2 2 2 2 2 3 3 4 5 6 6
7 8 8 8 9 9 9 9 9 9 9 8 8 8 8 8 6 5 3 3 3 3 3 3 3 2 2 2 2 2 2 2 2 2 2 2 2 3 3 4 5 6 6
8 8 8 9 9 9 9 9 9 8 8 8 8 8 8 8 7 6 4 3 2 2 2 3 2 2 2 2 2 3 3 3 3 3 3 3 2 3 4 4 5 6 6
8 9 9 9 9 9 9 8 8 8 8 7 7 7 8 8 7 6 5 3 2 2 2 2 2 2 2 2 2 2 3 3 3 4 4 3 3 4 4 5 5 6 6
9 9 9 9 9 9 8 8 8 8 7 7 7 7 8 8 7 7 5 4 3 2 2 2 2 2 2 2 2 2 3 3 4 4 4 3 4 4 4 5 5 6 6
9 9 9 9 9 8 8 8 8 8 8 8 8 7 7 7 7 7 6 5 4 3 2 2 2 2 2 2 2 2 2 3 3 4 4 3 4 4 4 5 5 6 6
8 8 8 9 9 8 8 8 8 8 8 8 8 7 7 6 6 6 6 6 5 4 3 2 2 2 2 2 2 2 2 2 3 3 3 3 3 4 4 5 5 6 7